If you wish to contribute or participate in the discussions about articles you are invited to join SKYbrary as a registered user

 Actions

Limón International Airport

From SKYbrary Wiki

MRLM
Airport
ICAO: MRLM – IATA: LIO
Summary
Name Limón International Airport
Region South America and Caribbean
Territory Costa Rica CR.gif
Location Limón, Limón Province
Serving Limón
Elevation 2.134 m
7 ft2.134 m
Coordinates 9° 57' 47.22" N, 83° 1' 30.99" W
Runways
Designator Length Width Surface ROPS
14/32 1800 m5,905.512 ft
30 m98.425 ft
ASP /


METAR
Observation MRLM 252200Z 10005KT 9999 FEW025 BKN130 27/21 A2986
Station Puerto Limon
Date/Time 25 February 2020 22:00:00
Wind direction 100°
Wind speed 05 kts
Lowest cloud amount few clouds
Temperature 27°C
Dew point 21°C
Humidity 69%
QNH hPa
Weather condition n/a

Limón International Airport in Limón, Costa Rica, is one of the four international airports in that country.

Climatology

Tropical rainforest climate (Köppen climate classification Af)

Maps

Terrain

Loading map...

Airport Layout

Loading map...


Accidents & Serious Incidents at or in vicinity of MRLM

None on SKYbrary